Flag for Austria Weather past 2 weeks in Waidhofen an der Thaya, Lower Austria, Austria

Now
57 °F

Cool.


Feels Like: 55 °F
Forecast: 40 / 51 °F
Wind: 9 mph from West

Location: Retz

Current Time: Sep 22, 2014 at 6:24:11 PM

Latest Report: Sep 22, 2014 at 5:00 PM


Visibility: N/A

Pressure: 29.85 "Hg

Humidity: 62%

Dew point: 44 °F

Location of Waidhofen an der ThayaLocation

Historic Weather in Waidhofen an der Thaya — Graph

°F

Waidhofen an der Thaya temperature yesterday

Maximum temperature yesterday: 71 °F (at 12:00 PM)
Minimum temperature yesterday: 58 °F (at 7:00 AM)
Average temperature yesterday: 63 °F

Past Weeks' High & Low Weather Summary

 TemperatureHumidityPressure
High76 °F (Sep 8, 4:00 PM)99% (Sep 14, 9:00 AM)30.08 "Hg (Sep 14, 9:00 AM)
Low53 °F (Sep 22, 8:00 AM)52% (Sep 8, 4:00 PM)29.77 "Hg (Sep 12, 6:00 AM)
Average62 °F82%29.97 "Hg
* Reported Sep 7 5:00 PM — Sep 22 5:00 PM, Waidhofen an der Thaya, Weather by CustomWeather, © 2014

Note: Actual official high and low records may vary slightly from our data, if they occured in-between our weather recording intervals... More about our weather records

Advertising

Waidhofen an der Thaya weather history for previous 24 hours

 ConditionsComfort  
Time TempWeatherWind HumidityBarometerVisibility
5:00 PM
Sep 22
57 °FCool.9 mph62%29.85 "HgN/A
4:00 PM56 °FCool.8 mph69%29.86 "HgN/A
3:00 PM54 °FCool.6 mph78%29.86 "HgN/A
2:00 PM58 °FPartly sunny.7 mph66%29.86 "Hg16 mi
1:00 PM59 °FRefreshingly cool.9 mph59%29.87 "HgN/A
12:00 PM58 °FCool.9 mph70%29.89 "HgN/A
11:00 AM56 °FCool.8 mph71%29.90 "HgN/A
10:00 AM56 °FCool.8 mph73%29.91 "HgN/A
9:00 AM54 °FCool.7 mph80%29.89 "HgN/A
8:00 AM53 °FPartly sunny.3 mph85%29.88 "Hg11 mi
7:00 AM53 °FOvercast.3 mph87%29.88 "Hg9 mi
6:00 AM53 °FCool.5 mph87%29.85 "HgN/A
5:00 AM54 °FCool.8 mph86%29.83 "HgN/A
4:00 AM54 °FCool.10 mph89%29.82 "HgN/A
3:00 AM55 °FFog.9 mph84%29.82 "HgN/A
2:00 AM59 °FCool.5 mph94%29.79 "HgN/A
1:00 AM60 °FCool.3 mph92%29.80 "HgN/A
12:00 AM60 °FCool.2 mph93%29.80 "HgN/A
11:00 PM
Sep 21
59 °FCool.2 mph92%29.81 "HgN/A
10:00 PM61 °FCool.5 mph84%29.80 "HgN/A
9:00 PM63 °FMild.6 mph81%29.81 "HgN/A
8:00 PM63 °FPassing clouds.6 mph81%29.82 "Hg9 mi
7:00 PM63 °FMild.6 mph85%29.80 "HgN/A
6:00 PM63 °FFog.5 mph87%29.82 "HgN/A
Weather by CustomWeather, © 2014

See weather overviewHow to use our weather pages